Location: Unspecified
(49.2170°N, 0.0000°E)
Time: 04:08:18
(UTC+00:00)

Transit 4A - Pass Details

Date: 19 June 2019
Orbit: 862 x 982 km, 66.8° (Epoch: 20 July)

Event Time Altitude Azimuth Distance (km) Brightness Sun altitude
Rises 13:56:45 0° 311° (NW) 3,691 11.1 55.7°
Reaches altitude 10° 14:00:23 10° 331° (NNW) 2,746 10.4 55.2°
Maximum altitude 14:04:29 17° 11° (N) 2,262 9.9 54.7°
Drops below altitude 10° 14:08:33 10° 51° (NE) 2,733 10.1 54.1°
Sets 14:12:09 0° 71° (ENE) 3,666 10.7 53.6°
